Location: Wavehorne
(51.0500°N, 0.8333°E)
Time: 16:52:47
(UTC+00:00)

Cosmos 1437 Rocket - Pass Details

Date: 20 June 2021
Orbit: 500 x 566 km, 81.2° (Epoch: 03 August)

Event Time Altitude Azimuth Distance (km) Brightness Sun altitude
Rises 01:12:48 0° 344° (NNW) 2,688 7.3 -13.7°
Reaches altitude 10° 01:15:00 10° 340° (NNW) 1,781 6.2 -13.6°
Maximum altitude 01:18:50 57° 262° (W) 619 2.9 -13.4°
Enters shadow 01:21:03 23° 191° (S) 1,144 3.8 -13.3°
